Location: El Bakhil
(32.7726°N, 5.5387°W)
Time: 19:01:47
(UTC+00:00)

Envisat - Pass Details

Date: 05 December 2021
Orbit: 764 x 766 km, 98.2° (Epoch: 18 January)

Event Time Altitude Azimuth Distance (km) Brightness Sun altitude
Rises 04:58:01 0° 17° (NNE) 3,235 6.3 -27.1°
Reaches altitude 10° 05:00:23 10° 22° (NNE) 2,305 5.6 -26.6°
Maximum altitude 05:05:22 56° 100° (E) 907 3.6 -25.6°
Drops below altitude 10° 05:10:19 10° 179° (S) 2,290 5.6 -24.5°
Sets 05:12:39 0° 183° (S) 3,212 6.3 -24.1°
